Location: Mitty Observatory
(35.9148°N, 88.8847°W)
Time: 06:27:01
(UTC-06:00)

ISS - Visible Passes

Search period start: 15 November 2019 00:00
Search period end: 25 November 2019 00:00
Orbit: 412 x 421 km, 51.6° (Epoch: 15 November)

Date Brightness Start Highest point End Pass type
(mag) Time Alt. Az. Time Alt. Az. Time Alt. Az.
15 Nov -1.8 05:01:32 18° SSW 05:01:32 18° SSW 05:03:06 10° S visible
18 Nov -0.5 19:12:40 10° SW 19:12:48 11° SW 19:12:48 11° SW visible
19 Nov -2.8 18:24:28 10° SSW 18:26:53 36° S 18:26:53 36° S visible
20 Nov -2.3 17:36:40 10° S 17:39:22 23° SE 17:40:53 17° E visible
20 Nov -0.7 19:12:59 10° W 19:13:49 16° W 19:13:49 16° W visible
21 Nov -3.3 18:24:13 10° WSW 18:27:30 53° NW 18:27:43 52° NNW visible
22 Nov -3.8 17:35:44 10° SW 17:39:04 80° SE 17:41:31 17° NE visible
22 Nov -0.4 19:14:13 10° WNW 19:14:26 11° WNW 19:14:26 11° WNW visible
23 Nov -1.8 18:24:54 10° W 18:27:31 21° NNW 18:28:08 20° NNW visible
24 Nov -2.4 17:35:53 10° WSW 17:38:57 32° NW 17:41:46 12° NNE visible
